Flag for U.S.A. Weather past 2 weeks in Cumberland, Maryland, U.S.A.

Now
58 °F

Mostly cloudy.


Feels Like: 58 °F
Forecast: 57 / 67 °F
Wind: 5 mph from Northeast

Location: Eastern West Virginia Regional Airport

Current Time: Jun 3, 2015 at 5:51:29 AM

Latest Report: Jun 3, 2015 at 4:53 AM


Visibility: 10 mi

Pressure: 30.14 "Hg

Humidity: 87%

Dew point: 54 °F

Location of CumberlandLocation

Historic Weather in Cumberland — Graph

°F

Cumberland temperature yesterday

Maximum temperature yesterday: 63 °F (at 12:53 AM)
Minimum temperature yesterday: 58 °F (at 11:53 AM)
Average temperature yesterday: 61 °F

Past Weeks' High & Low Weather Summary

 TemperatureHumidityPressure
High87 °F (May 28, 3:53 PM)97% (May 19, 3:53 AM)30.47 "Hg (May 19, 3:53 AM)
Low39 °F (May 23, 5:53 AM)24% (May 23, 11:53 AM)29.85 "Hg (May 19, 6:53 PM)
Average68 °F69%30.12 "Hg
* Reported May 19 3:53 AM — Jun 3 3:53 AM, Cumberland, Weather by CustomWeather, © 2015

Note: Actual official high and low records may vary slightly from our data, if they occured in-between our weather recording intervals... More about our weather records

Advertising

Cumberland weather history for previous 24 hours

 ConditionsComfort  
Time TempWeatherWind HumidityBarometerVisibility
3:53 AM
Wed, Jun 3
58 °FOvercast.6 mph87%30.15 "Hg10 mi
2:53 AM59 °FOvercast.5 mph87%30.14 "Hg10 mi
2:04 AM59 °FMostly cloudy.3 mph90%30.15 "Hg10 mi
1:53 AM59 °FMostly cloudy.No wind90%30.15 "Hg10 mi
12:53 AM59 °FMostly cloudy.5 mph90%30.15 "Hg10 mi
11:53 PM
Tue, Jun 2
59 °FOvercast.7 mph90%30.15 "Hg10 mi
11:01 PM59 °FFog.5 mph93%30.15 "Hg5 mi
9:53 PM59 °FFog.6 mph90%30.14 "Hg4 mi
8:53 PM60 °FOvercast.6 mph83%30.13 "Hg10 mi
7:53 PM61 °FMostly cloudy.6 mph81%30.12 "Hg10 mi
6:53 PM62 °FOvercast.5 mph80%30.11 "Hg10 mi
5:53 PM62 °FOvercast.8 mph78%30.11 "Hg10 mi
4:53 PM62 °FOvercast.10 mph78%30.09 "Hg10 mi
3:53 PM62 °FMostly cloudy.12 mph78%30.09 "Hg10 mi
3:03 PM62 °FOvercast.10 mph80%30.12 "Hg10 mi
2:53 PM61 °FMostly cloudy.10 mph83%30.11 "Hg10 mi
1:53 PM59 °FMostly cloudy.12 mph90%30.12 "Hg8 mi
12:53 PM59 °FLight rain. Fog.13 mph90%30.13 "Hg5 mi
11:53 AM58 °FLight rain. Fog.10 mph90%30.12 "Hg5 mi
10:53 AM59 °FLight rain. Fog.8 mph90%30.11 "Hg3 mi
9:53 AM60 °FLight rain. Mostly cloudy.6 mph90%30.09 "Hg10 mi
8:53 AM60 °FFog.9 mph90%30.08 "Hg6 mi
7:53 AM60 °FCloudy.12 mph90%30.06 "Hg9 mi
6:53 AM60 °FLow clouds.10 mph90%30.04 "Hg10 mi
5:53 AM61 °FRain. Fog.9 mph93%30.02 "Hg2 mi
5:00 AM61 °FLight rain. Fog.7 mph93%30.02 "Hg4 mi
Weather by CustomWeather, © 2015

See weather overviewHow to use our weather pages